Wichita, KS

4:37 AM CDT on June 24, 2017 (GMT -0500)
Wichita Eisenhower National Airport

Weather History for KICT - July, 2013

Change the Weather History Date:

Monday, July 22, 2013

  Actual Average Record
Temperature  
Mean Temperature 82 °F 81 °F  
Max Temperature 91 °F 93 °F 107 °F (1954)
Min Temperature 72 °F 70 °F 53 °F (1970)
Degree Days  
Heating Degree Days 0 0  
Month to date heating degree days 0 0  
Since 1 June heating degree days 3 6  
Since 1 July heating degree days 0 0  
Cooling Degree Days 17 16  
Month to date cooling degree days 359 347  
Year to date cooling degree days 899 812  
Since 1 June cooling degree days 761 676  
Growing Degree Days 30 (Base 50)    
Moisture  
Dew Point 70 °F    
Average Humidity 71    
Maximum Humidity 93    
Minimum Humidity 49    
Precipitation  
Precipitation 0.21 in 0.10 in 0.94 in (1973)
Month to date precipitation 2.61 2.48  
Year to date precipitation 18.46 19.54  
Snow  
Snow 0.00 in 0.00 in 0.00 in (2007)
Month to date snowfall 0.0 0.0  
Since 1 June snowfall 0.0 0.0  
Since 1 July snowfall 0.0 0.0  
Snow Depth 0.00 in    
Sea Level Pressure  
Sea Level Pressure 29.80 in    
Wind  
Wind Speed 8 mph (SSE)    
Max Wind Speed 23 mph    
Max Gust Speed 28 mph    
Visibility 10 miles    
Events Rain , Thunderstorm    
T = Trace of Precipitation, MM = Missing Value Source: NWS Daily Summary

Daily Weather History Graph

Daily Weather History Graph

Search for Another Location

Airport or City:

Trip Planner

Search our weather history database for the weather conditions in past years. The results will help you decide how hot, cold, wet, or windy it might be!

Date:

Astronomy

Jul. 22, 2013 Rise Set
Actual Time 6:25 AM CDT 8:46 PM CDT
Civil Twilight 5:55 AM CDT 9:16 PM CDT
Nautical Twilight 5:18 AM CDT 9:52 PM CDT
Astronomical Twilight 4:38 AM CDT 10:32 PM CDT
Moon 8:35 PM CDT (7/22) 6:22 AM CDT (7/22)
Length of Visible Light 15h 20m
Length of Day
14h 20m
Full, 100% of the Moon is Illuminated
Jul 22
Full
Jul 22
Full
Jul 29
Last Quarter
Aug 6
New
Aug 14
First Quarter

Hourly Weather History & Observations

Time (CDT) Temp. Heat Index Dew Point Humidity Pressure Visibility Wind Dir Wind Speed Gust Speed Precip Events Conditions
12:53 AM 78.1 °F - 73.0 °F 84% 29.78 in 10.0 mi SE 9.2 mph - N/A   Scattered Clouds
1:53 AM 78.1 °F - 73.0 °F 84% 29.78 in 10.0 mi ESE 6.9 mph - N/A   Mostly Cloudy
2:53 AM 75.9 °F - 72.0 °F 87% 29.77 in 10.0 mi SE 5.8 mph - N/A Thunderstorm Thunderstorm
3:53 AM 75.0 °F - 72.0 °F 90% 29.76 in 10.0 mi South 4.6 mph - N/A Thunderstorm Thunderstorm
4:53 AM 73.9 °F - 70.0 °F 87% 29.76 in 10.0 mi South 5.8 mph - N/A   Mostly Cloudy
5:53 AM 72.0 °F - 69.1 °F 91% 29.76 in 10.0 mi South 4.6 mph - N/A   Scattered Clouds
6:53 AM 73.0 °F - 69.1 °F 87% 29.78 in 10.0 mi SSE 4.6 mph - 0.00 in   Mostly Cloudy
7:53 AM 73.0 °F - 69.1 °F 87% 29.78 in 10.0 mi SSE 3.5 mph - N/A   Scattered Clouds
8:06 AM 73.4 °F - 69.8 °F 88% 29.82 in 10.0 mi SSE 4.6 mph - N/A Thunderstorm Thunderstorm
8:53 AM 75.9 °F - 69.1 °F 79% 29.79 in 10.0 mi Calm Calm - N/A Thunderstorm Thunderstorm
9:06 AM 75.2 °F - 69.8 °F 83% 29.84 in 10.0 mi South 5.8 mph - N/A Thunderstorm Thunderstorm
9:53 AM 78.1 °F - 68.0 °F 71% 29.87 in 10.0 mi NNE 8.1 mph - 0.00 in Rain , Thunderstorm Light Thunderstorms and Rain
10:53 AM 75.0 °F - 71.1 °F 87% 29.88 in 10.0 mi Calm Calm - 0.18 in Rain Light Rain
11:14 AM 73.4 °F - 71.6 °F 94% 29.90 in 5.0 mi SE 10.4 mph - 0.03 in Rain , Thunderstorm Light Thunderstorms and Rain
11:53 AM 77.0 °F - 72.0 °F 84% 29.79 in 10.0 mi ESE 17.3 mph - 0.03 in Thunderstorm Thunderstorm
11:57 AM 77.0 °F - 71.6 °F 83% 29.84 in 10.0 mi East 15.0 mph - N/A   Mostly Cloudy
12:53 PM 78.1 °F - 69.1 °F 74% 29.80 in 10.0 mi SE 10.4 mph - N/A   Mostly Cloudy
1:53 PM 82.9 °F 87.0 °F 70.0 °F 65% 29.81 in 10.0 mi SSE 10.4 mph - N/A   Mostly Cloudy
2:53 PM 86.0 °F 90.7 °F 70.0 °F 59% 29.81 in 10.0 mi SE 11.5 mph - N/A   Mostly Cloudy
3:53 PM 84.0 °F 88.4 °F 70.0 °F 63% 29.82 in 10.0 mi ESE 9.2 mph - 0.00 in   Mostly Cloudy
4:46 PM 80.6 °F 84.6 °F 71.6 °F 74% 29.87 in 10.0 mi NNE 9.2 mph - 0.00 in Thunderstorm Thunderstorm
4:53 PM 81.0 °F 85.2 °F 72.0 °F 74% 29.82 in 10.0 mi ENE 8.1 mph - 0.00 in Thunderstorm Thunderstorm
5:14 PM 82.4 °F 87.2 °F 71.6 °F 70% 29.82 in 10.0 mi South 13.8 mph - 0.00 in Rain Light Rain
5:53 PM 82.0 °F 87.4 °F 73.0 °F 74% 29.81 in 10.0 mi West 3.5 mph - 0.00 in   Mostly Cloudy
6:53 PM 81.0 °F 86.2 °F 73.9 °F 79% 29.79 in 10.0 mi SW 11.5 mph - N/A   Mostly Cloudy
7:07 PM 80.6 °F 85.4 °F 73.4 °F 79% 29.83 in 10.0 mi West 9.2 mph - 0.00 in Rain , Thunderstorm Light Thunderstorms and Rain
7:53 PM 78.1 °F - 71.1 °F 79% 29.79 in 10.0 mi South 6.9 mph - 0.00 in Thunderstorm Thunderstorm
8:53 PM 78.1 °F - 71.1 °F 79% 29.76 in 10.0 mi SSW 8.1 mph - N/A   Mostly Cloudy
9:53 PM 80.1 °F 81.7 °F 64.0 °F 58% 29.78 in 10.0 mi SW 13.8 mph - N/A   Mostly Cloudy
10:53 PM 81.0 °F 82.2 °F 63.0 °F 54% 29.77 in 10.0 mi SW 12.7 mph - N/A   Mostly Cloudy
11:53 PM 81.0 °F 81.3 °F 59.0 °F 47% 29.78 in 10.0 mi SW 11.5 mph - N/A   Mostly Cloudy